Simultaneous Nadir Overpasses (SNOs) Predictions

Prediction of SNOs between NOAA-19 and METOP-C Satellite Orbit:

Table of predicted SNOs for the next 14.0 days since TLE Epoch: 12/10/2022
Index Date (NOAA-19) Time (NOAA-19) Lat,Lon (NOAA-19) SZA (NOAA-19 ) Date (METOP-C) Time (METOP-C) Lat,Lon (METOP-C) SZA (METOP-C ) Distance(km) Time Diff (sec)
1 12/18/2022 06:38:29 -80.92, -64.98 74.14 12/18/2022 06:39:36 -80.92, -64.80 74.10 3.06 67
2 12/18/2022 07:29:24 80.92, 102.34 105.87 12/18/2022 07:30:18 80.91, 102.30 105.88 1.25 54
3 12/18/2022 08:20:28 -80.92, -90.26 74.12 12/18/2022 08:20:58 -80.91, -90.29 74.12 0.77 30
4 12/18/2022 09:11:23 80.92, 77.05 105.89 12/18/2022 09:11:39 80.92, 77.17 105.90 2.07 16
5 12/18/2022 10:02:27 -80.91,-115.54 74.10 12/18/2022 10:02:19 -80.92,-115.42 74.09 2.23 8
6 12/18/2022 10:53:22 80.91, 51.77 105.91 12/18/2022 10:53:01 80.91, 51.68 105.89 1.60 21
7 12/18/2022 11:44:26 -80.91,-140.82 74.08 12/18/2022 11:43:41 -80.91,-140.91 74.11 1.53 45



Historial Predications of SNOs between NOAA-19 and METOP-C
